Location: Banff
(51.1667°N, 115.5667°W)
Time: 14:34:57
(UTC+00:00)

Courier 1B Rocket - Pass Details

Date: 27 November 2020
Orbit: 920 x 1202 km, 28.2° (Epoch: 17 January)

Event Time Altitude Azimuth Distance (km) Brightness Sun altitude
Rises 14:49:06 0° 219° (SW) 4,075 8.1 -4.9°
Reaches altitude 10° 14:55:30 10° 181° (S) 3,063 8.0 -4.0°
Maximum altitude 14:56:27 10° 173° (S) 3,034 8.1 -3.9°
Drops below altitude 10° 14:57:24 10° 166° (SSE) 3,044 8.3 -3.8°
Sets 15:03:35 0° 128° (SE) 3,925 10.9 -2.9°
